Regional Weather Roundup
Issued by NWS Portland, ME

Home | Current Version | Previous Version | Text Only | Print | Product List | Glossary On
Versions: 1 2 3 4 5 6 7 8 9 10 11 12 13 14 15 16 17 18 19 20 21 22 23 24 25 26 27 28 29 30 31 32 33 34 35 36 37 38 39 40 41 42 43 44 45 46 47 48 49 50
000
ASUS41 KGYX 050305
RWRGYX
WEATHER ROUNDUP FOR MAINE AND NEW HAMPSHIRE
NATIONAL WEATHER SERVICE GRAY ME
1100 PM EDT SAT JUL 04 2015

MEZ002-005-006-010-012-015-018-020-021-024-026-027-029-050400-
MAINE

CITY           SKY/WX    TMP DP  RH WIND       PRES   REMARKS
PORTLAND       PTCLDY    59  58  96 CALM      29.97S FOG
SANFORD        CLEAR     52  46  82 CALM      29.98S
BAR HARBOR     MOCLDY    59  57  94 S5        29.96S
WISCASSET      CLEAR     57  55  93 CALM      29.98R
ROCKLAND       PTCLDY    55  52  88 CALM      29.95S
FRYEBURG       CLEAR     58  56  93 CALM      29.97S
LEWISTONAUBURN MOCLDY    57  54  88 CALM      29.96F
AUGUSTA        PTCLDY    59  57  93 S3        29.96S
WATERVILLE       N/A    N/A N/A N/A MISG        N/A
BANGOR         MOCLDY    61  57  87 S6        29.95R
GREENVILLE       N/A     58  55  90 CALM      29.95R
MILLINOCKET    PTCLDY    62  57  83 CALM      29.94S
HOULTON        CLOUDY    60  54  80 SW3       29.91F
PRESQUE ISLE   PTCLDY    59  54  82 CALM      29.92S
FRENCHVILLE    PTCLDY    64  49  57 CALM      29.92S
CARIBOU        PTCLDY    60  56  86 CALM      29.91S
$$

NHZ002-005-008-009-011-012-014-050400-
NEW HAMPSHIRE

CITY           SKY/WX    TMP DP  RH WIND       PRES   REMARKS
PORTSMOUTH     PTCLDY    60  58  93 S3        29.97S
ROCHESTER      CLEAR     60  56  86 CALM      29.97S
NASHUA         CLEAR     61  59  94 CALM      30.00S FOG
MANCHESTER     PTCLDY    61  59  93 CALM      29.98R FOG
CONCORD        FOG       57  55  93 CALM      29.99S VSB 1
LACONIA        CLEAR     59  55  88 W3        29.98S
PLYMOUTH       MOCLDY    57  57 100 CALM      29.99S FOG
BERLIN         CLOUDY    60  56  86 CALM      29.98S
WHITEFIELD     CLOUDY    62  59  90 CALM      29.99S
JAFFREY        MOCLDY    55  54  96 CALM      30.02S FOG
KEENE          CLOUDY    57  54  88 CALM      30.02R
LEBANON        PTCLDY    61  58  90 CALM      29.99S
MT WASHINGTON  NOT AVBL
$$

VTZ005-007-008-050400-
VERMONT

CITY           SKY/WX    TMP DP  RH WIND       PRES   REMARKS
ST JOHNSBURY     N/A     63  60  90 MISG      29.97S
MONTPELIER     LGT RAIN  60  58  92 CALM      30.03S
BURLINGTON     CLOUDY    64  60  87 S8        29.98R
$$

MAZ007-012-024-CTZ003-RIZ002-NYZ038-NYZ072-050400-
SOUTHERN NEW ENGLAND AND NY

CITY           SKY/WX    TMP DP  RH WIND       PRES   REMARKS
BOSTON         PTCLDY    65  57  75 CALM      29.99S
WORCESTER      CLEAR     61  55  81 W8        30.02R
NANTUCKET      CLEAR     61  57  87 NW7       29.97R
PROVIDENCE     PTCLDY    66  60  81 NW5       29.99S HAZE
HARTFORD       CLEAR     60  57  89 CALM      30.00R
ALBANY         PTCLDY    62  59  90 SE3       30.01R
NEW YORK CITY  PTCLDY    72  58  61 S6        30.00R
$$

ANZ081-ANZ082-ANZ150-NHZ014-MEZ023>029-050400-
COASTAL MARINE OBSERVATIONS

STATION/POSITION TIME  TEMP    WIND        PRES    WAVE
                       AIR SEA DIR/SP/G            HT/PER
                 (UTC) (F)     (DEG/KT/KT) (MB)    (FT/S)
MOUNT DESERT ROC 0300   54     260/  6/  7 1014.9R
MATINICUS ROCK   0200   57     250/  7/  8 1014.7R
ISLE OF SHOALS   0200   64     210/  6/  6 1014.7R
JEFFREYS LEDGE   0203      59                N/A     2/ 9
CASHES LEDGE BUO 0250   59 58              1014.6R   3/ 6
GEORGES BANK BUO 0150   62 59   30/ 17/ 21 1008.8    5/ 9
$$

.............KEY..............
   WCI - WIND CHILL
   TC  - TEMPERATURE IN CELSIUS
   VSB - VISIBILITY IN MILES
   HX  - HEAT INDEX
   FAIR- INDICATES FEW OR NO CLOUDS BELOW 12,000 FT, WITH NO
         SIGNIFICANT WEATHER AND/OR OBSTRUCTIONS TO VISIBILITY.





USA.gov is the U.S. government's official web portal to all federal, state and local government web resources and services.